TimeEST,TemperatureF,Dew PointF,Humidity,Sea Level PressureIn,VisibilityMPH,Wind Direction,Wind SpeedMPH,Gust SpeedMPH,PrecipitationIn,Events,Conditions,WindDirDegrees,DateUTC
12:15 AM,46.4,44.6,93,30.31,10.0,Calm,Calm,-,N/A,,Clear,0,2012-12-03 05:15:00
12:35 AM,44.6,44.6,100,30.31,10.0,Calm,Calm,-,N/A,,Clear,0,2012-12-03 05:35:00
12:55 AM,44.6,42.8,93,30.31,10.0,Calm,Calm,-,N/A,,Clear,0,2012-12-03 05:55:00
1:15 AM,44.6,44.6,100,30.31,10.0,Calm,Calm,-,N/A,,Clear,0,2012-12-03 06:15:00
1:35 AM,42.8,42.8,100,30.31,4.0,Calm,Calm,-,N/A,,Clear,0,2012-12-03 06:35:00
1:55 AM,42.8,42.8,100,30.32,4.0,North,3.5,-,N/A,,Clear,350,2012-12-03 06:55:00
2:15 AM,42.8,42.8,100,30.32,4.0,North,4.6,-,N/A,,Clear,350,2012-12-03 07:15:00
2:35 AM,44.6,44.6,100,30.32,7.0,North,3.5,-,N/A,,Clear,350,2012-12-03 07:35:00
2:55 AM,44.6,44.6,100,30.32,5.0,North,4.6,-,N/A,,Mostly Cloudy,350,2012-12-03 07:55:00
3:15 AM,46.4,44.6,93,30.32,5.0,Calm,Calm,-,N/A,,Overcast,0,2012-12-03 08:15:00
3:35 AM,46.4,44.6,93,30.32,5.0,Calm,Calm,-,N/A,,Overcast,0,2012-12-03 08:35:00
3:55 AM,46.4,44.6,93,30.32,5.0,Calm,Calm,-,N/A,,Overcast,0,2012-12-03 08:55:00
4:15 AM,44.6,44.6,100,30.32,7.0,Calm,Calm,-,N/A,,Overcast,0,2012-12-03 09:15:00
4:35 AM,44.6,44.6,100,30.32,7.0,NNW,3.5,-,N/A,,Overcast,330,2012-12-03 09:35:00
4:55 AM,44.6,44.6,100,30.32,7.0,Calm,Calm,-,N/A,,Overcast,0,2012-12-03 09:55:00
5:15 AM,44.6,42.8,93,30.31,7.0,Calm,Calm,-,N/A,,Mostly Cloudy,0,2012-12-03 10:15:00
5:35 AM,42.8,42.8,100,30.32,4.0,Calm,Calm,-,N/A,,Mostly Cloudy,0,2012-12-03 10:35:00
5:55 AM,42.8,42.8,100,30.32,4.0,Calm,Calm,-,N/A,,Mostly Cloudy,0,2012-12-03 10:55:00
6:15 AM,41.0,41.0,100,30.33,3.0,Calm,Calm,-,N/A,,Overcast,0,2012-12-03 11:15:00
6:35 AM,41.0,41.0,100,30.33,4.0,Calm,Calm,-,N/A,,Mostly Cloudy,0,2012-12-03 11:35:00
6:55 AM,41.0,41.0,100,30.34,4.0,Calm,Calm,-,N/A,,Mostly Cloudy,0,2012-12-03 11:55:00
7:15 AM,42.8,42.8,100,30.34,5.0,Calm,Calm,-,N/A,,Scattered Clouds,0,2012-12-03 12:15:00
7:35 AM,41.0,41.0,100,30.34,3.0,Calm,Calm,-,N/A,,Mostly Cloudy,0,2012-12-03 12:35:00
7:55 AM,42.8,42.8,100,30.34,10.0,Calm,Calm,-,N/A,,Scattered Clouds,0,2012-12-03 12:55:00
8:15 AM,44.6,44.6,100,30.35,10.0,Calm,Calm,-,N/A,,Scattered Clouds,0,2012-12-03 13:15:00
8:35 AM,46.4,44.6,93,30.35,10.0,Calm,Calm,-,N/A,,Clear,0,2012-12-03 13:35:00
8:55 AM,50.0,44.6,82,30.35,10.0,Calm,Calm,-,N/A,,Clear,0,2012-12-03 13:55:00
9:15 AM,51.8,44.6,76,30.35,10.0,Calm,Calm,-,N/A,,Clear,0,2012-12-03 14:15:00
9:35 AM,51.8,44.6,76,30.35,10.0,Calm,Calm,-,N/A,,Clear,0,2012-12-03 14:35:00
9:55 AM,55.4,44.6,67,30.36,10.0,Calm,Calm,-,N/A,,Clear,0,2012-12-03 14:55:00
10:15 AM,59.0,44.6,59,30.35,10.0,Calm,Calm,-,N/A,,Clear,0,2012-12-03 15:15:00
10:35 AM,60.8,46.4,59,30.35,10.0,Calm,Calm,-,N/A,,Clear,0,2012-12-03 15:35:00
10:55 AM,60.8,46.4,59,30.34,10.0,Calm,Calm,-,N/A,,Clear,0,2012-12-03 15:55:00
11:15 AM,64.4,46.4,52,30.34,10.0,Calm,Calm,-,N/A,,Clear,0,2012-12-03 16:15:00
11:35 AM,66.2,46.4,49,30.33,10.0,Calm,Calm,-,N/A,,Clear,0,2012-12-03 16:35:00
11:55 AM,68.0,46.4,46,30.32,10.0,SSW,3.5,-,N/A,,Clear,210,2012-12-03 16:55:00
12:15 PM,68.0,46.4,46,30.31,10.0,Calm,Calm,-,N/A,,Scattered Clouds,0,2012-12-03 17:15:00
12:35 PM,69.8,46.4,43,30.30,10.0,Calm,Calm,-,N/A,,Scattered Clouds,0,2012-12-03 17:35:00
12:55 PM,69.8,46.4,43,30.29,10.0,SSW,4.6,-,N/A,,Clear,210,2012-12-03 17:55:00
1:15 PM,71.6,46.4,41,30.29,10.0,Calm,Calm,-,N/A,,Scattered Clouds,0,2012-12-03 18:15:00
1:55 PM,71.6,46.4,41,30.27,10.0,Calm,Calm,-,N/A,,Overcast,0,2012-12-03 18:55:00
2:15 PM,73.4,44.6,36,30.27,10.0,East,5.8,-,N/A,,Mostly Cloudy,100,2012-12-03 19:15:00
2:35 PM,73.4,46.4,38,30.27,10.0,ESE,4.6,-,N/A,,Scattered Clouds,120,2012-12-03 19:35:00
2:55 PM,71.6,46.4,41,30.27,10.0,SE,6.9,-,N/A,,Clear,140,2012-12-03 19:55:00
3:15 PM,71.6,46.4,41,30.27,-9999.0,SE,6.9,-,0.03,,Clear,130,2012-12-03 20:15:00
3:35 PM,71.6,46.4,41,30.27,10.0,SE,8.1,-,0.03,,Clear,140,2012-12-03 20:35:00
3:55 PM,69.8,46.4,43,30.27,10.0,SSE,8.1,-,0.03,,Clear,150,2012-12-03 20:55:00
4:15 PM,69.8,46.4,43,30.27,10.0,SSE,4.6,-,N/A,,Unknown,160,2012-12-03 21:15:00
4:35 PM,68.0,46.4,46,30.27,10.0,SE,4.6,-,N/A,,Unknown,140,2012-12-03 21:35:00
4:55 PM,66.2,46.4,49,30.28,10.0,SE,4.6,-,N/A,,Unknown,140,2012-12-03 21:55:00
5:15 PM,64.4,48.2,56,30.28,10.0,SE,4.6,-,N/A,,Unknown,130,2012-12-03 22:15:00
5:35 PM,62.6,49.1,61,30.28,10.0,Calm,Calm,-,N/A,,Clear,0,2012-12-03 22:35:00
5:55 PM,58.5,49.1,71,30.29,10.0,SE,3.5,-,N/A,,Clear,130,2012-12-03 22:55:00
6:15 PM,58.1,49.1,72,30.29,10.0,Calm,Calm,-,N/A,,Clear,0,2012-12-03 23:15:00
6:35 PM,55.4,47.7,75,30.29,10.0,Calm,Calm,-,N/A,,Clear,0,2012-12-03 23:35:00
6:55 PM,53.2,47.7,81,30.30,10.0,Calm,Calm,-,N/A,,Clear,0,2012-12-03 23:55:00
7:15 PM,51.8,47.1,84,30.30,10.0,Calm,Calm,-,N/A,,Clear,0,2012-12-04 00:15:00
7:35 PM,51.3,47.5,87,30.30,10.0,Calm,Calm,-,N/A,,Clear,0,2012-12-04 00:35:00
7:55 PM,50.9,47.3,87,30.30,10.0,Calm,Calm,-,N/A,,Clear,0,2012-12-04 00:55:00
8:15 PM,50.5,47.3,89,30.30,10.0,Calm,Calm,-,N/A,,Clear,0,2012-12-04 01:15:00
8:35 PM,49.6,46.6,89,30.30,10.0,Calm,Calm,-,N/A,,Clear,0,2012-12-04 01:35:00
8:55 PM,48.6,46.2,92,30.31,10.0,Calm,Calm,-,N/A,,Clear,0,2012-12-04 01:55:00
9:15 PM,49.5,45.9,87,30.31,10.0,Calm,Calm,-,N/A,,Clear,0,2012-12-04 02:15:00
9:35 PM,46.9,44.8,92,30.31,10.0,Calm,Calm,-,N/A,,Clear,0,2012-12-04 02:35:00
9:55 PM,46.6,45.1,95,30.31,10.0,Calm,Calm,-,N/A,,Clear,0,2012-12-04 02:55:00
10:15 PM,47.1,45.7,95,30.31,10.0,Calm,Calm,-,N/A,,Clear,0,2012-12-04 03:15:00
10:35 PM,45.0,43.9,96,30.31,10.0,Calm,Calm,-,N/A,,Clear,0,2012-12-04 03:35:00
10:55 PM,45.7,45.3,99,30.31,10.0,Calm,Calm,-,N/A,,Clear,0,2012-12-04 03:55:00
11:15 PM,43.3,42.6,97,30.31,7.0,Calm,Calm,-,N/A,,Clear,0,2012-12-04 04:15:00
11:35 PM,45.0,44.6,99,30.31,10.0,Calm,Calm,-,N/A,,Clear,0,2012-12-04 04:35:00
11:55 PM,44.6,44.2,99,30.32,7.0,Calm,Calm,-,N/A,,Clear,0,2012-12-04 04:55:00